Find Hai Yang 2-03

NORAD ID: 46469 Int'l Des: 2020-066 Owner: GYZ/CASC Country: CN operational
LEOCIRCULAR

Current View

Loading 3D Globe...

About Hai Yang 2-03

Hai Yang 2-03 (NORAD 46469) is a satellite launched Sep 21, 2020 by GYZ/CASC of CN. It operates in LEO, CIRCULAR orbit with a mass of 1500.00 kg.

Upcoming Passes

Passes for default location (London). Set your location on the main map for personalized predictions.

Altitude History

Loading altitude history...

Two-Line Element Set

1 46469U 20066A 26195.20400218 -.00000192 00000-0 -10057-3 0 9993
2 46469 65.9960 148.0181 0007685 237.1428 122.8901 13.83372292293234
Epoch: Jul 14, 2026 • Age: 9 hours

Current Status

Altitude 959.9 km
Apogee / Perigee N/A
Velocity 7.37 km/s
Sub-Earth Point 29.55°N, 23.28°E
Launch Date Sep 21, 2020
Age 5.8 years
Type other

Technical Details

Classification Payload
Mass 1500.00 kg
Dry Mass 1500.00 kg
Total Mass 1500.00 kg
Length 1.00 m
Diameter 1.00 m
Span 4.00 m
Shape Box + 2 Pan
Manufacturer SISE
Bus Type CAST-968
Phase Status In Orbit
Owner/State GYZ/CASC/CN

Most Searched